Weather History for Mackall AAF, NC

Change the Weather History Date:

Monday, January 7, 2013

  Actual Average Record
Temperature  
Mean Temperature 40 °F -  
Max Temperature 53 °F 55 °F 71 °F (2005)
Min Temperature 28 °F 32 °F 9 °F (2014)
Degree Days  
Heating Degree Days 24    
Moisture  
Dew Point 31 °F    
Average Humidity 92    
Maximum Humidity 100    
Minimum Humidity 40    
Precipitation  
Precipitation 0.00 in - - ()
Sea Level Pressure  
Sea Level Pressure 30.30 in    
Wind  
Wind Speed 2 mph (NW)    
Max Wind Speed 13 mph    
Max Gust Speed -    
Visibility 4 miles    
Events Fog    
Averages and records for this station are not official NWS values.
T = Trace of Precipitation, MM = Missing Value Source: NWS Daily Summary

Daily Weather History Graph

Daily Weather History Graph

Search for Another Location

Airport:

Trip Planner

Search our weather history database for the weather conditions in past years. The results will help you decide how hot, cold, wet, or windy it might be!

Date:

Astronomy

Jan. 07, 2013 Rise Set
Actual Time 7:26 AM EST 5:22 PM EST
Civil Twilight 6:58 AM EST 5:50 PM EST
Nautical Twilight 6:27 AM EST 6:21 PM EST
Astronomical Twilight 5:56 AM EST 6:52 PM EST
Moon 2:51 AM EST (1/7) 1:30 PM EST (1/7)
Length of Visible Light 10h 51m
Length of Day
9h 55m
Waning Crescent, 23% of the Moon is Illuminated
Jan 7
Waning Crescent
Jan 11
New
Jan 18
First Quarter
Jan 26
Full
Feb 3
Last Quarter

Hourly Weather History & Observations

Time (EST) Temp. Windchill Dew Point Humidity Pressure Visibility Wind Dir Wind Speed Gust Speed Precip Events Conditions
12:55 AM 39.9 °F 37.8 °F 39.2 °F 97% 30.23 in 10.0 mi NNW 3.5 mph - N/A   Mostly Cloudy
1:55 AM 35.2 °F - 34.7 °F 98% 30.24 in 4.0 mi WSW 1.2 mph - N/A   Clear
2:02 AM 33.8 °F - 33.8 °F 100% 30.24 in 2.5 mi WSW 2.3 mph - N/A   Clear
2:08 AM 33.8 °F - 33.8 °F 100% 30.25 in 3.0 mi Variable 1.2 mph - N/A   Clear
2:17 AM 33.8 °F - 33.8 °F 100% 30.24 in 2.5 mi West 1.2 mph - N/A   Clear
2:34 AM 33.8 °F - 33.8 °F 100% 30.24 in 1.8 mi WNW 1.2 mph - N/A   Clear
2:35 AM 33.8 °F - 33.8 °F 100% 30.24 in 1.5 mi WNW 1.2 mph - N/A   Clear
2:36 AM 33.8 °F - 33.8 °F 100% 30.24 in 1.2 mi WNW 1.2 mph - N/A   Clear
2:37 AM 33.8 °F - 33.8 °F 100% 30.24 in 1.0 mi Calm Calm - N/A   Clear
2:38 AM 33.8 °F - 33.8 °F 100% 30.24 in 0.8 mi Calm Calm - N/A Fog Fog
2:49 AM 33.8 °F - 33.8 °F 100% 30.25 in 1.0 mi WNW 1.2 mph - N/A Fog Fog
2:51 AM 32.0 °F - 32.0 °F 100% 30.25 in 1.2 mi Calm Calm - N/A   Clear
2:54 AM 32.0 °F - 32.0 °F 100% 30.25 in 1.5 mi Calm Calm - N/A   Clear
2:55 AM 31.8 °F - 31.8 °F 100% 30.25 in 1.5 mi Calm Calm - N/A   Clear
3:00 AM 32.0 °F - 32.0 °F 100% 30.25 in 1.5 mi Calm Calm - N/A   Partly Cloudy
3:01 AM 32.0 °F - 32.0 °F 100% 30.25 in 1.8 mi Calm Calm - N/A   Partly Cloudy
3:03 AM 32.0 °F - 32.0 °F 100% 30.25 in 2.5 mi Variable 1.2 mph - N/A   Partly Cloudy
3:05 AM 32.0 °F - 32.0 °F 100% 30.25 in 2.5 mi WNW 1.2 mph - N/A   Mist
3:06 AM 32.0 °F - 32.0 °F 100% 30.25 in 3.0 mi WNW 1.2 mph - N/A   Mist
3:25 AM 32.0 °F - 32.0 °F 100% 30.25 in 7.0 mi North - - N/A   Mostly Cloudy
3:30 AM 32.0 °F - 32.0 °F 100% 30.25 in 7.0 mi West 2.3 mph - N/A   Scattered Clouds
3:38 AM - - - N/A% 30.26 in 2.5 mi WSW 2.3 mph - N/A   Scattered Clouds
3:39 AM - - - N/A% 30.26 in 1.8 mi West 2.3 mph - N/A   Scattered Clouds
3:40 AM 30.2 °F - 30.2 °F 100% 30.26 in 1.5 mi West 2.3 mph - N/A   Partly Cloudy
3:41 AM 30.2 °F - 30.2 °F 100% 30.26 in 1.2 mi West 2.3 mph - N/A   Partly Cloudy
3:42 AM 30.2 °F - 30.2 °F 100% 30.26 in 1.0 mi West 2.3 mph - N/A   Partly Cloudy
3:43 AM - - - N/A% 30.25 in 0.8 mi WNW 1.2 mph - N/A Fog Fog
3:55 AM 30.6 °F 25.8 °F 30.7 °F 100% 30.25 in 0.8 mi North 4.6 mph - N/A Fog Patches of Fog
3:56 AM 30.2 °F 25.4 °F 30.2 °F 100% 30.25 in 1.0 mi North 4.6 mph - N/A Fog Patches of Fog
3:58 AM 30.2 °F 25.4 °F 30.2 °F 100% 30.25 in 0.8 mi North 4.6 mph - N/A Fog Patches of Fog
3:59 AM 30.2 °F 25.4 °F 30.2 °F 100% 30.25 in 1.0 mi NNW 4.6 mph - N/A Fog Patches of Fog
4:06 AM 30.2 °F 25.4 °F 30.2 °F 100% 30.25 in 1.5 mi North 4.6 mph - N/A Fog Patches of Fog
4:08 AM 30.2 °F 25.4 °F 30.2 °F 100% 30.25 in 1.8 mi North 4.6 mph - N/A   Partly Cloudy
4:09 AM 30.2 °F 26.7 °F 30.2 °F 100% 30.25 in 2.0 mi North 3.5 mph - N/A   Partly Cloudy
4:10 AM 30.2 °F 26.7 °F 30.2 °F 100% 30.25 in 2.5 mi North 3.5 mph - N/A   Partly Cloudy
4:21 AM 30.2 °F 26.7 °F 30.2 °F 100% 30.25 in 1.5 mi North 3.5 mph - N/A   Clear
4:22 AM 30.2 °F 26.7 °F 30.2 °F 100% 30.26 in 1.2 mi North 3.5 mph - N/A   Clear
4:24 AM 30.2 °F 26.7 °F 30.2 °F 100% 30.26 in 1.0 mi North 3.5 mph - N/A   Clear
4:26 AM 30.2 °F - 30.2 °F 100% 30.27 in 0.8 mi NNW 2.3 mph - N/A Fog Fog
4:30 AM 30.2 °F - 30.2 °F 100% 30.27 in 0.8 mi Variable 1.2 mph - N/A Fog Light Freezing Fog
4:36 AM 30.2 °F - 30.2 °F 100% 30.27 in 0.8 mi SSE 2.3 mph - N/A Fog Fog
4:39 AM 28.4 °F - 28.4 °F 100% 30.27 in 1.0 mi North - - N/A Fog Light Freezing Fog
4:42 AM 28.4 °F - 28.4 °F 100% 30.27 in 1.2 mi North - - N/A   Partly Cloudy
4:43 AM 28.4 °F - 28.4 °F 100% 30.27 in 1.5 mi North - - N/A   Partly Cloudy
4:44 AM 28.4 °F - 28.4 °F 100% 30.28 in 2.0 mi North - - N/A   Partly Cloudy
4:45 AM 28.4 °F - 28.4 °F 100% 30.28 in 2.5 mi North - - N/A   Partly Cloudy
4:46 AM 28.4 °F - 28.4 °F 100% 30.28 in 3.0 mi North - - N/A   Partly Cloudy
4:55 AM - - - N/A% 30.28 in 4.0 mi NNW 1.2 mph - N/A   Partly Cloudy
5:55 AM - - - N/A% 30.30 in 4.0 mi NNW 2.3 mph - N/A   Clear
6:55 AM 28.0 °F 24.2 °F 27.5 °F 98% 30.34 in 6.0 mi NW 3.5 mph - N/A   Clear
7:55 AM 28.6 °F 22.4 °F 28.9 °F 100% 30.37 in 8.0 mi NNW 5.8 mph - N/A   Clear
8:55 AM 35.1 °F 31.0 °F 34.7 °F 99% 30.40 in 10.0 mi North 4.6 mph - N/A   Clear
9:55 AM 44.2 °F 38.0 °F 32.5 °F 63% 30.42 in 10.0 mi NNE 12.7 mph - N/A   Clear
10:55 AM 48.6 °F - 30.4 °F 50% 30.43 in 10.0 mi NE 10.4 mph - N/A   Clear
11:55 AM 51.1 °F - 29.7 °F 44% 30.41 in 10.0 mi North 8.1 mph - N/A   Clear
12:55 PM 51.6 °F - 28.4 °F 41% 30.39 in 10.0 mi Variable 6.9 mph - N/A   Clear
1:55 PM 52.9 °F - 28.9 °F 40% 30.39 in 10.0 mi Variable 6.9 mph - N/A   Clear
2:55 PM 52.9 °F - 29.3 °F 40% 30.40 in 10.0 mi Variable 4.6 mph - N/A   Clear
3:55 PM 53.2 °F - 30.0 °F 41% 30.40 in 10.0 mi Variable 3.5 mph - N/A   Clear
4:55 PM 51.4 °F - 30.6 °F 45% 30.41 in 10.0 mi NE 4.6 mph - N/A   Clear
5:55 PM 43.3 °F - 32.5 °F 66% 30.43 in 10.0 mi Variable 2.3 mph - N/A   Clear
6:55 PM 37.6 °F - 33.3 °F 84% 30.45 in 10.0 mi SSW 1.2 mph - N/A   Clear
7:55 PM 35.2 °F 31.2 °F 31.1 °F 85% 30.45 in 10.0 mi NE 4.6 mph - N/A   Clear
8:55 PM 31.3 °F - 29.8 °F 94% 30.45 in 10.0 mi South 1.2 mph - N/A   Clear
9:55 PM 30.9 °F 27.5 °F 29.8 °F 96% 30.45 in 10.0 mi North 3.5 mph - N/A   Clear
10:55 PM 31.3 °F - 30.0 °F 95% 30.44 in 10.0 mi Calm Calm - N/A   Mostly Cloudy
11:55 PM 29.5 °F - 28.9 °F 98% 30.45 in 10.0 mi NW 2.3 mph - N/A   Scattered Clouds